National Weather Service Raw Text Product

Displaying AFOS PIL: RWRIA Received: 2018-06-14 08:00 UTC


720 
ASUS43 KDMX 140806
RWRIA 

WEATHER ROUNDUP FOR IOWA
NATIONAL WEATHER SERVICE DES MOINES IA
300 AM CDT THU JUN 14 2018

NOTE: "FAIR" INDICATES FEW OR NO CLOUDS BELOW 12,000 FEET WITH NO
SIGNIFICANT WEATHER AND/OR OBSTRUCTIONS TO VISIBILITY.

* - THESE STATIONS ARE NOT NWS STATIONS...THUS NOT UNDER NWS
QUALITY CONTROL.  THEY ALSO DO NOT REPORT WEATHER SUCH 
AS PRECIPITATION OR FOG.  

IAZ001>003-012>014-020>022-031>034-043>046-140900-
   NORTHWEST IOWA
  
CITY           SKY/WX    TMP DP  RH WIND       PRES   REMARKS
CARROLL *      CLOUDY    66  59  77 SE7       29.95F                  
CHEROKEE *     CLOUDY    66  57  71 SE8       29.92F                  
DENISON *      CLOUDY    68  55  64 SE13G18   29.93F                  
LE MARS *      CLOUDY   N/A N/A N/A SE7       29.91F                  
ORANGE CITY *  CLOUDY    66  57  72 E3        29.93F                  
SHELDON *      CLOUDY    64  57  77 SE10      29.93S                  
SIOUX CITY     CLOUDY    66  59  78 E9        29.89F                  
SPENCER        MOCLDY    66  55  67 SE9       29.95F                  
STORM LAKE *   CLOUDY    64  55  72 SE10      29.95F                  
$$
 
IAZ055>058-069>071-079>083-090>094-140900-
   SOUTHWEST IOWA
  
CITY           SKY/WX    TMP DP  RH WIND       PRES   REMARKS
ATLANTIC *     CLOUDY    68  55  64 E3        29.95F                  
AUDUBON *      MOCLDY    64  59  82 SE3       29.97F                  
CLARINDA *     CLOUDY    70  54  56 S7        29.96F                  
COUNCIL BLFS * CLOUDY    68  63  83 SE8       29.92F                  
CRESTON *      PTCLDY    64  59  82 SE9       30.00F                  
HARLAN  *      CLOUDY    68  57  68 E5        29.98F                  
LAMONI         PTCLDY    66  57  72 SE6       30.00F                  
RED OAK *      MOCLDY    70  57  64 MISG      29.93F                  
SHENANDOAH *   PTCLDY    70  55  60 SE16      29.92F                  
$$
 
IAZ047>049-059>061-072>074-084-140900-
   CENTRAL IOWA
  
CITY           SKY/WX    TMP DP  RH WIND       PRES   REMARKS
AMES           CLOUDY    65  57  75 E3        30.00F                  
ANKENY *       CLOUDY    66  55  68 SE7       30.00F                  
BOONE *        RAIN      64  57  77 SW13      30.04R                  
CHARITON *     CLOUDY    64  57  77 SE9       30.00F                  
DES MOINES     CLOUDY    70  53  54 SE12      29.98F                  
GRINNELL*      PTCLDY    63  54  71 E8        30.03F                  
KNOXVILLE *    CLOUDY    66  54  63 E6        30.00F                  
MARSHALLTOWN   LGT RAIN  63  57  81 E10       30.00F                  
NEWTON *       MOCLDY    64  55  72 SE8       30.01F                  
PELLA *        MOCLDY    66  54  64 SE8       30.03F                  
PERRY *        CLOUDY    66  61  83 CALM      29.98F                  
$$
 
IAZ004>006-015-016-023>025-035-036-140900-
   NORTH CENTRAL IOWA
  
CITY           SKY/WX    TMP DP  RH WIND       PRES   REMARKS
ALGONA *       CLOUDY    63  55  77 SE8       29.99F                  
CLARION *      CLOUDY    63  57  82 E5        30.02S                  
ESTHERVILLE    MOCLDY    61  55  81 SE9       29.97F                  
FORT DODGE *   LGT RAIN  64  58  80 S9        30.00F                  
MASON CITY     CLOUDY    63  56  78 SE5       30.03F                  
FOREST CITY *  MOCLDY    61  55  82 CALM      30.02F                  
WEBSTER CITY * CLOUDY    64  57  77 NW18      30.03R                  
IOWA FALLS *   CLOUDY    64  58  80 E5        30.04S                  
$$

IAZ007>011-017>019-026>030-037>042-050>054-066-140900-
   NORTHEAST IOWA
  
CITY           SKY/WX    TMP DP  RH WIND       PRES   REMARKS
CEDAR RAPIDS   FAIR      61  58  90 E5        30.04F                  
CHARLES CITY * MOCLDY    63  55  77 E5        30.04F                  
CLINTON *      FAIR      64  62  93 CALM      30.07                   
DECORAH *      MOCLDY    63  59  88 CALM      30.05F                  
DUBUQUE        FAIR      62  57  83 CALM      30.08R                  
MONTICELLO *   FAIR      63  63 100 CALM      30.06S                  
OELWEIN *      MOCLDY    63  59  88 E5        30.05F                  
WATERLOO       FAIR      60  58  92 E5        30.02F                  
$$
 
IAZ064-065-067-068-078-140900-
   EAST CENTRAL IOWA
  
CITY           SKY/WX    TMP DP  RH WIND       PRES   REMARKS
DAVENPORT      FAIR      62  59  90 CALM      30.08R                  
IOWA CITY      FAIR      65  58  78 CALM      30.06S                  
MT. PLEASANT * CLOUDY    61  55  82 E6        30.05F                  
MUSCATINE *      N/A    N/A N/A N/A MISG        N/A                   
QUAD CITIES    FAIR      62  58  86 CALM      30.06R                  
$$
 
IAZ062-063-075>077-085>089-095>099-140900-
   SOUTHEAST IOWA
  
CITY           SKY/WX    TMP DP  RH WIND       PRES   REMARKS
BURLINGTON     PTCLDY    67  50  54 E3        30.05R                  
FAIRFIELD *    CLOUDY    63  52  67 SE5       30.04S                  
FORT MADISON * CLOUDY    61  54  77 CALM      30.07R                  
KEOKUK *       CLEAR     66  52  59 SE5       30.04R                  
OSKALOOSA *    FAIR      64  54  71 SE6       30.04S                  
CENTERVILLE *    N/A     61  59  94 CALM      30.05S                  
OTTUMWA        CLOUDY    63  55  75 SE7       30.03R                  
WASHINGTON *   CLOUDY    63  61  94 E3        30.06S                  
$$

ABBREVIATIONS USED IN REMARKS
   TC - TEMPERATURES IN CELSIUS
  WCI - WIND CHILL INDEX
   HX - HEAT INDEX
  VSB - VISIBILITY  
$$

  

114 
ASUS43 KDMX 140801
RWRIA 

WEATHER ROUNDUP FOR IOWA
NATIONAL WEATHER SERVICE DES MOINES IA
300 AM CDT THU JUN 14 2018

NOTE: "FAIR" INDICATES FEW OR NO CLOUDS BELOW 12,000 FEET WITH NO
SIGNIFICANT WEATHER AND/OR OBSTRUCTIONS TO VISIBILITY.

* - THESE STATIONS ARE NOT NWS STATIONS...THUS NOT UNDER NWS
QUALITY CONTROL.  THEY ALSO DO NOT REPORT WEATHER SUCH 
AS PRECIPITATION OR FOG.  

IAZ001>003-012>014-020>022-031>034-043>046-140900-
   NORTHWEST IOWA
  
CITY           SKY/WX    TMP DP  RH WIND       PRES   REMARKS
CARROLL *      CLOUDY    66  59  77 SE7       29.95F                  
CHEROKEE *     CLOUDY    66  57  71 SE8       29.92F                  
DENISON *      CLOUDY    68  55  64 SE13G18   29.93F                  
LE MARS *      CLOUDY   N/A N/A N/A SE7       29.91F                  
ORANGE CITY *  CLOUDY    66  57  72 E3        29.93F                  
SHELDON *      CLOUDY    64  57  77 SE10      29.93S                  
SIOUX CITY     CLOUDY    66  59  78 E9        29.89F                  
SPENCER        MOCLDY    66  55  67 SE9       29.95F                  
STORM LAKE *   CLOUDY    64  55  72 SE10      29.95F                  
$$
 
IAZ055>058-069>071-079>083-090>094-140900-
   SOUTHWEST IOWA
  
CITY           SKY/WX    TMP DP  RH WIND       PRES   REMARKS
ATLANTIC *     CLOUDY    68  55  64 E3        29.95F                  
AUDUBON *      MOCLDY    64  59  82 SE3       29.97F                  
CLARINDA *     CLOUDY    70  54  56 S7        29.96F                  
COUNCIL BLFS * CLOUDY    68  63  83 SE8       29.92F                  
CRESTON *      PTCLDY    64  59  82 SE9       30.00F                  
HARLAN  *      CLOUDY    68  57  68 E5        29.98F                  
LAMONI         PTCLDY    66  57  72 SE6       30.00F                  
RED OAK *      MOCLDY    70  57  64 MISG      29.93F                  
SHENANDOAH *   PTCLDY    70  55  60 SE16      29.92F                  
$$
 
IAZ047>049-059>061-072>074-084-140900-
   CENTRAL IOWA
  
CITY           SKY/WX    TMP DP  RH WIND       PRES   REMARKS
AMES           CLOUDY    65  57  75 E3        30.00F                  
ANKENY *       CLOUDY    66  55  68 SE7       30.00F                  
BOONE *        RAIN      64  57  77 SW13      30.04R                  
CHARITON *     CLOUDY    64  57  77 SE9       30.00F                  
DES MOINES     CLOUDY    70  53  54 SE12      29.98F                  
GRINNELL*      PTCLDY    63  54  71 E8        30.03F                  
KNOXVILLE *    CLOUDY    66  54  63 E6        30.00F                  
MARSHALLTOWN   LGT RAIN  63  57  81 E10       30.00F                  
NEWTON *       MOCLDY    64  55  72 SE8       30.01F                  
PELLA *        MOCLDY    66  54  64 SE8       30.03F                  
$$
 
IAZ004>006-015-016-023>025-035-036-140900-
   NORTH CENTRAL IOWA
  
CITY           SKY/WX    TMP DP  RH WIND       PRES   REMARKS
ALGONA *       CLOUDY    63  55  77 SE8       29.99F                  
CLARION *      CLOUDY    63  57  82 E5        30.02S                  
ESTHERVILLE    MOCLDY    61  55  81 SE9       29.97F                  
FORT DODGE *   LGT RAIN  64  58  80 S9        30.00F                  
MASON CITY     CLOUDY    63  56  78 SE5       30.03F                  
FOREST CITY *  MOCLDY    61  55  82 CALM      30.02F                  
WEBSTER CITY * CLOUDY    64  57  77 NW18      30.03R                  
IOWA FALLS *   CLOUDY    64  58  80 E5        30.04S                  
$$

IAZ007>011-017>019-026>030-037>042-050>054-066-140900-
   NORTHEAST IOWA
  
CITY           SKY/WX    TMP DP  RH WIND       PRES   REMARKS
CEDAR RAPIDS   FAIR      61  58  90 E5        30.04F                  
CHARLES CITY * MOCLDY    63  55  77 E5        30.04F                  
CLINTON *      FAIR      64  62  93 CALM      30.07                   
DECORAH *      MOCLDY    63  59  88 CALM      30.05F                  
DUBUQUE        FAIR      62  57  83 CALM      30.08R                  
MONTICELLO *   FAIR      63  63 100 CALM      30.06S                  
OELWEIN *      MOCLDY    63  59  88 E5        30.05F                  
WATERLOO       FAIR      60  58  92 E5        30.02F                  
$$
 
IAZ064-065-067-068-078-140900-
   EAST CENTRAL IOWA
  
CITY           SKY/WX    TMP DP  RH WIND       PRES   REMARKS
DAVENPORT      FAIR      62  59  90 CALM      30.08R                  
IOWA CITY      FAIR      65  58  78 CALM      30.06S                  
MUSCATINE *      N/A    N/A N/A N/A MISG        N/A                   
QUAD CITIES    FAIR      62  58  86 CALM      30.06R                  
$$
 
IAZ062-063-075>077-085>089-095>099-140900-
   SOUTHEAST IOWA
  
CITY           SKY/WX    TMP DP  RH WIND       PRES   REMARKS
BURLINGTON     PTCLDY    67  50  54 E3        30.05R                  
FAIRFIELD *    CLOUDY    63  52  67 SE5       30.04S                  
FORT MADISON * CLOUDY    61  54  77 CALM      30.07R                  
KEOKUK *       CLEAR     66  52  59 SE5       30.04R                  
OSKALOOSA *    FAIR      64  54  71 SE6       30.04S                  
CENTERVILLE *    N/A     61  59  94 CALM      30.05S                  
OTTUMWA        CLOUDY    63  55  75 SE7       30.03R                  
WASHINGTON *   CLOUDY    63  61  94 E3        30.06S                  
$$

ABBREVIATIONS USED IN REMARKS
   TC - TEMPERATURES IN CELSIUS
  WCI - WIND CHILL INDEX
   HX - HEAT INDEX
  VSB - VISIBILITY  
$$